Regional Weather Roundup
Issued by NWS

Home | Current Version | Previous Version | Graphics & Text | Print | Product List | Glossary On
Versions: 1 2 3 4 5 6 7 8 9 10 11 12 13 14 15 16 17 18 19 20 21 22 23 24 25 26 27 28
000
ASUS45 KSLC 221310
RWRUT

UTAH REGIONAL WEATHER ROUNDUP
NATIONAL WEATHER SERVICE SALT LAKE CITY UT
700 AM MDT SUN APR 22 2018

UTZ001>011-023>025-221400-

NORTHERN UTAH

CITY           SKY/WX    TMP DP  RH WIND       PRES   REMARKS
BRIGHAM CITY   CLEAR     40  32  73 NW5       30.14S
HILL AFB       CLEAR     45  27  49 NE14      30.14S
LOGAN          CLEAR     43  31  62 CALM      30.16S
OGDEN          CLEAR     43  28  55 S6        30.13S
SALT LAKE CITY PTCLDY    48  32  53 SE10      30.13R
TOOELE VALLEY  CLEAR     45  32  61 S9        30.14S
WENDOVER       PTCLDY    49  27  42 CALM      30.13R
HEBER CITY       N/A     28  23  80 CALM      30.22S
WEST JORDAN    CLEAR     42  33  68 S6        30.15S

$$

UTZ011>015-024>027-221400-

CENTRAL/NORTHEAST UTAH

CITY           SKY/WX    TMP DP  RH WIND       PRES   REMARKS
PROVO AIRPORT  CLEAR     43  31  62 SE3       30.18R
MOAB/CANYONLAN CLEAR     49  34  56 SE8       30.15R
DELTA          CLEAR     37  34  87 NE6       30.15S WCI  33
PRICE          CLEAR     39  24  55 NE5       30.19R
ROOSEVELT      CLEAR     36  30  80 W6        30.22S WCI  31
VERNAL         CLEAR     39  31  72 CALM      30.20R

$$

UTZ013>016-019>022-027-221400-

SOUTHERN UTAH

CITY           SKY/WX    TMP DP  RH WIND       PRES   REMARKS
BRYCE CANYON   PTCLDY    27  22  81 W9        30.25S WCI  18
CEDAR CITY     MOCLDY    37  29  72 CALM      30.15S
MILFORD        CLEAR     35  33  92 S5        30.15S WCI  31
ST GEORGE      SUNNY     54  26  34 CALM      30.07R
HANKSVILLE     CLEAR     45  28  53 N6        30.17R
BLANDING         N/A     45  25  45 N10       30.25S

$$

REGIONAL REPORTS     COLORADO/ARIZONA

CITY           SKY/WX    TMP DP  RH WIND       PRES   REMARKS
CRAIG, CO      CLEAR     29  27  92 SW5       30.25S WCI  24
GRAND JUNCTION CLEAR     41  34  76 SE10      30.21R
RIFLE, CO      CLEAR     34  32  92 CALM      30.27R
MONTROSE, CO   CLEAR     34  29  82 SE7       30.27R WCI  28
CORTEZ, CO     CLEAR     31  20  63 E5        30.20R WCI  26
COLORADO CITY    N/A     37  28  70 CALM      30.15S
PAGE, AZ       PTCLDY    51  30  44 CALM      30.11R
GRAND CANYON   MOCLDY    29  22  75 CALM      30.20S
KINGMAN, AZ    PTCLDY    57  22  25 SE12      30.03R
FLAGSTAFF, AZ  MOCLDY    28  16  60 CALM      30.21S

$$

REGIONAL REPORTS    NEVADA/IDAHO/WYOMING

CITY           SKY/WX    TMP DP  RH WIND       PRES   REMARKS
LAS VEGAS, NV  MOCLDY    63  28  26 SW5       29.98R
ELY, NY        PTCLDY    29  19  66 S8        30.19S WCI  21
ELKO, NV       CLEAR     35  30  82 CALM      30.14S
POCATELLO, ID  PTCLDY    38  31  76 E5        30.14F WCI  34
BURLEY, ID     CLEAR     34  29  82 S3        30.13S
FORT BRIDGER,    N/A     41  26  55 SW6       30.27S
EVANSTON, WY   CLEAR     37  25  61 SE8       30.24S WCI  31
ROCK SPRINGS,  CLEAR     36  26  67 S7        30.23R WCI  30
KEMMERER, WY   CLEAR     32  25  74 N5        30.25R WCI  27

$$




USA.gov is the U.S. government's official web portal to all federal, state and local government web resources and services.